KD4IZ-13 Weather Reports


time (UTC)temp
C
wind
direction
speed
KPH
gust
KPH
rain 1hr
cm
rain 24hr
cm
rain mn
cm
humidity
%
barometer
mb
20260504070409 2 342 0.0 0.0 0.00 0.00 0.00 94 1016.6
20260504050253 2 343 0.0 0.0 0.00 0.00 0.00 91 1016.9
20260504045751 3 343 0.0 0.0 0.00 0.00 0.00 88 1016.8
20260504045245 3 343 0.0 0.0 0.00 0.00 0.00 88 1017.1
20260504044743 3 343 0.0 0.0 0.00 0.00 0.00 88 1016.9
20260504044240 4 343 0.0 0.0 0.00 0.00 0.00 87 1016.8
20260504043737 4 343 0.0 1.6 0.00 0.00 0.00 88 1016.9
20260504043234 4 343 0.0 1.6 0.00 0.00 0.00 87 1016.9
20260504042732 4 343 0.0 0.0 0.00 0.00 0.00 84 1016.9
20260504042227 4 343 0.0 1.6 0.00 0.00 0.00 82 1016.9
20260504041724 4 343 0.0 0.0 0.00 0.00 0.00 84 1016.8
20260504041220 5 343 0.0 0.0 0.00 0.00 0.00 82 1016.8
20260504040711 4 343 1.6 1.6 0.00 0.00 0.00 83 1016.5
20260504040208 3 343 1.6 1.6 0.00 0.00 0.00 85 1016.7
20260504035704 4 343 0.0 0.0 0.00 0.00 0.00 83 1016.8
20260504035202 5 343 0.0 0.0 0.00 0.00 0.00 83 1016.7
20260504034659 5 343 0.0 0.0 0.00 0.00 0.00 82 1016.6
20260504034156 5 343 0.0 1.6 0.00 0.00 0.00 83 1016.7
20260504033654 5 343 1.6 1.6 0.00 0.00 0.00 82 1016.8
20260504033151 5 343 0.0 0.0 0.00 0.00 0.00 81 1016.5
20260504032647 5 343 0.0 0.0 0.00 0.00 0.00 82 1016.7
20260504032145 5 343 0.0 0.0 0.00 0.00 0.00 82 1016.7
20260504031642 5 343 0.0 0.0 0.00 0.00 0.00 81 1016.4
20260504031138 5 343 0.0 0.0 0.00 0.00 0.00 78 1016.4
20260504030635 6 343 0.0 0.0 0.00 0.00 0.00 76 1016.5
20260504030132 6 343 1.6 1.6 0.00 0.00 0.00 76 1016.4
20260504025628 6 343 0.0 0.0 0.00 0.00 0.00 76 1016.6
20260504025125 6 343 0.0 0.0 0.00 0.00 0.00 75 1016.6
20260504024623 6 343 0.0 1.6 0.00 0.00 0.00 74 1016.4
20260504024119 6 343 0.0 1.6 0.00 0.00 0.00 74 1016.6
20260504023616 6 343 1.6 1.6 0.00 0.00 0.00 73 1016.2
20260504023111 7 343 0.0 0.0 0.00 0.00 0.00 70 1016.3
20260504022608 6 343 0.0 1.6 0.00 0.00 0.00 69 1016.1
20260504022104 6 343 0.0 1.6 0.00 0.00 0.00 69 1016.2
20260504021603 7 343 0.0 0.0 0.00 0.00 0.00 68 1016.5
20260504021059 7 343 0.0 1.6 0.00 0.00 0.00 67 1016.3
20260504020556 7 343 0.0 0.0 0.00 0.00 0.00 65 1016.2
20260504020051 8 343 0.0 0.0 0.00 0.00 0.00 63 1016.3
20260504015548 7 343 0.0 0.0 0.00 0.00 0.00 65 1016.2
20260504015044 7 343 0.0 0.0 0.00 0.00 0.00 63 1016.3
20260504014541 8 343 0.0 0.0 0.00 0.00 0.00 62 1016.3
20260504014038 8 343 0.0 0.0 0.00 0.00 0.00 62 1016.3
20260504013536 8 343 0.0 0.0 0.00 0.00 0.00 60 1016.3
20260504013032 8 343 1.6 1.6 0.00 0.00 0.00 60 1016.0
20260504012529 8 343 0.0 0.0 0.00 0.00 0.00 59 1016.1
20260504012022 8 343 0.0 0.0 0.00 0.00 0.00 59 1016.2
20260504011518 9 343 1.6 1.6 0.00 0.00 0.00 59 1016.1
20260504011014 9 343 0.0 0.0 0.00 0.00 0.00 58 1015.9
20260504010510 10 343 0.0 0.0 0.00 0.00 0.00 56 1015.9
20260504010006 9 343 0.0 0.0 0.00 0.00 0.00 57 1015.9
20260504005503 9 343 0.0 0.0 0.00 0.00 0.00 58 1015.8
20260504005001 10 343 0.0 0.0 0.00 0.00 0.00 56 1015.9
20260504004458 10 343 0.0 0.0 0.00 0.00 0.00 56 1015.9
20260504003955 10 343 0.0 0.0 0.00 0.00 0.00 56 1015.8
20260504003451 10 343 0.0 0.0 0.00 0.00 0.00 56 1015.8
20260504002948 10 343 0.0 0.0 0.00 0.00 0.00 55 1015.8
20260504002445 10 343 0.0 0.0 0.00 0.00 0.00 56 1015.7
20260504001943 10 343 0.0 0.0 0.00 0.00 0.00 55 1015.7
20260504001440 11 343 0.0 0.0 0.00 0.00 0.00 54 1015.3
20260504000936 11 343 0.0 0.0 0.00 0.00 0.00 52 1015.5
20260504000433 12 343 0.0 0.0 0.00 0.00 0.00 52 1015.4
20260503235931 12 285 0.0 0.0 0.00 0.00 0.00 48 1015.5
20260503235428 12 285 1.6 1.6 0.00 0.00 0.00 48 1015.4
20260503234926 13 279 1.6 3.2 0.00 0.00 0.00 47 1015.5
20260503234423 13 277 3.2 3.2 0.00 0.00 0.00 45 1015.4
20260503233921 13 301 3.2 3.2 0.00 0.00 0.00 44 1015.2
20260503233417 14 344 1.6 1.6 0.00 0.00 0.00 42 1015.2
20260503232914 14 229 6.4 9.7 0.00 0.00 0.00 43 1015.2
20260503232411 14 296 8.0 9.7 0.00 0.00 0.00 41 1014.8
20260503231909 15 293 3.2 4.8 0.00 0.00 0.00 41 1015.1
20260503231405 15 312 9.7 12.9 0.00 0.00 0.00 40 1015.1
20260503230902 15 293 3.2 4.8 0.00 0.00 0.00 44 1015.0
20260503230358 15 266 6.4 8.0 0.00 0.00 0.00 42 1014.9
20260503225856 15 305 11.3 12.9 0.00 0.00 0.00 40 1015.0
20260503225352 15 321 6.4 8.0 0.00 0.00 0.00 41 1014.9
20260503224848 15 258 4.8 8.0 0.00 0.00 0.00 42 1015.0
20260503224346 15 249 3.2 3.2 0.00 0.00 0.00 41 1015.1
20260503223843 15 330 3.2 3.2 0.00 0.00 0.00 41 1015.2
20260503223341 15 241 3.2 4.8 0.00 0.00 0.00 41 1015.1
20260503222836 15 251 8.0 11.3 0.00 0.00 0.00 40 1015.1
20260503222335 15 301 14.5 16.1 0.00 0.00 0.00 39 1015.1
20260503221832 15 349 4.8 8.0 0.00 0.00 0.00 40 1015.1
20260503221331 15 343 3.2 3.2 0.00 0.00 0.00 41 1014.9
20260503220827 15 241 11.3 14.5 0.00 0.00 0.00 41 1015.0
20260503220324 15 248 8.0 11.3 0.00 0.00 0.00 41 1015.3
20260503215820 15 6 4.8 8.0 0.00 0.00 0.00 39 1015.3
20260503215318 15 317 6.4 9.7 0.00 0.00 0.00 39 1015.1
20260503214816 15 359 4.8 8.0 0.00 0.00 0.00 40 1015.2
20260503214313 15 245 3.2 4.8 0.00 0.00 0.00 39 1015.2
20260503213810 16 310 8.0 11.3 0.00 0.00 0.00 39 1015.0
20260503213308 15 265 9.7 11.3 0.00 0.00 0.00 40 1014.9
20260503212804 16 291 9.7 14.5 0.00 0.00 0.00 38 1015.1
20260503212304 16 281 8.0 11.3 0.00 0.00 0.00 39 1015.0
20260503211759 15 279 11.3 16.1 0.00 0.00 0.00 39 1015.1
20260503211255 15 262 8.0 9.7 0.00 0.00 0.00 39 1015.0
20260503210750 15 290 6.4 8.0 0.00 0.00 0.00 38 1014.9
20260503210243 15 258 16.1 17.7 0.00 0.00 0.00 39 1014.9
20260503205743 15 213 8.0 9.7 0.00 0.00 0.00 40 1015.0
20260503205240 15 13 4.8 4.8 0.00 0.00 0.00 41 1015.0
20260503204736 16 299 4.8 4.8 0.00 0.00 0.00 38 1015.0
20260503204234 15 227 6.4 9.7 0.00 0.00 0.00 41 1015.1
20260503203731 15 289 6.4 9.7 0.00 0.00 0.00 39 1014.8
20260503203228 15 277 9.7 12.9 0.00 0.00 0.00 40 1015.2
20260503202725 15 242 8.0 9.7 0.00 0.00 0.00 38 1014.9
20260503202223 14 290 4.8 4.8 0.00 0.00 0.00 42 1015.2
20260503201721 14 325 4.8 8.0 0.00 0.00 0.00 40 1015.2
20260503201218 14 275 9.7 12.9 0.00 0.00 0.00 39 1015.4
20260503200714 15 308 6.4 8.0 0.00 0.00 0.00 44 1015.4
20260503200211 15 273 4.8 8.0 0.00 0.00 0.00 41 1015.4
20260503195708 15 286 14.5 14.5 0.00 0.00 0.00 39 1015.6
20260503195205 15 124 4.8 8.0 0.00 0.00 0.00 40 1015.5
20260503194702 15 235 4.8 8.0 0.00 0.00 0.00 40 1015.8
20260503194157 14 324 11.3 14.5 0.00 0.00 0.00 44 1015.6
20260503193654 13 296 6.4 9.7 0.00 0.00 0.00 42 1016.0
20260503193150 14 243 9.7 12.9 0.00 0.00 0.00 41 1015.9
20260503192645 13 315 3.2 3.2 0.00 0.00 0.00 43 1015.6
20260503192141 13 353 8.0 9.7 0.00 0.00 0.00 43 1016.1
20260503191638 13 244 12.9 16.1 0.00 0.00 0.00 43 1016.2
20260503191135 13 16 8.0 9.7 0.00 0.00 0.00 43 1016.2
20260503190632 14 292 11.3 14.5 0.00 0.00 0.00 41 1015.9
20260503190129 14 287 4.8 8.0 0.00 0.00 0.00 45 1016.2
20260503185626 13 274 9.7 14.5 0.00 0.00 0.00 44 1016.1
20260503185121 13 270 9.7 11.3 0.00 0.00 0.00 45 1016.1
20260503184616 13 344 20.9 24.1 0.00 0.00 0.00 41 1016.5
20260503184113 13 239 9.7 11.3 0.00 0.00 0.00 46 1016.2
20260503183609 14 356 14.5 17.7 0.00 0.00 0.00 43 1016.3
20260503183107 13 289 11.3 17.7 0.00 0.00 0.00 45 1016.4
20260503182605 13 317 9.7 14.5 0.00 0.00 0.00 43 1016.6
20260503182103 13 302 9.7 14.5 0.00 0.00 0.00 43 1016.5
20260503181559 13 280 8.0 11.3 0.00 0.00 0.00 45 1016.5
20260503181056 13 312 11.3 12.9 0.00 0.00 0.00 46 1016.6
20260503180553 13 49 11.3 12.9 0.00 0.00 0.00 44 1016.7
20260503180050 13 29 4.8 8.0 0.00 0.00 0.00 46 1016.4
20260503175548 12 23 4.8 4.8 0.00 0.00 0.00 47 1016.6
20260503175045 12 307 9.7 11.3 0.00 0.00 0.00 48 1016.7
20260503174542 13 312 12.9 16.1 0.00 0.00 0.00 44 1016.7
20260503174038 13 354 11.3 12.9 0.00 0.00 0.00 46 1016.6
20260503173533 12 318 4.8 4.8 0.00 0.00 0.00 48 1016.7
20260503173030 12 6 8.0 9.7 0.00 0.00 0.00 47 1016.8
20260503172528 12 270 14.5 16.1 0.00 0.00 0.00 44 1016.9
20260503172024 12 296 16.1 20.9 0.00 0.00 0.00 47 1016.7
20260503171521 12 269 9.7 12.9 0.00 0.00 0.00 48 1016.9
20260503171018 12 238 9.7 12.9 0.00 0.00 0.00 49 1016.9
20260503170514 12 316 14.5 20.9 0.00 0.00 0.00 43 1017.0
20260503150901 10 0 8.0 14.5 0.00 0.00 0.00 46 1017.6
20260503150357 10 315 6.4 14.5 0.00 0.00 0.00 49 1017.6
20260503131251 7 2 4.8 8.0 0.00 0.00 0.00 64 1017.6
20260503130748 7 18 3.2 4.8 0.00 0.00 0.00 62 1017.6
20260503130246 7 15 14.5 24.1 0.00 0.00 0.00 63 1017.5
20260503120212 5 318 8.0 9.7 0.00 0.00 0.00 72 1017.3
20260503110639 3 302 9.7 11.3 0.00 0.00 0.00 77 1016.8
20260503110137 3 274 1.6 3.2 0.00 0.00 0.00 78 1016.7
20260503081440 3 303 3.2 3.2 0.00 0.00 0.00 79 1015.2
20260503080938 3 224 6.4 9.7 0.00 0.00 0.00 79 1015.1
20260503080434 3 235 4.8 4.8 0.00 0.00 0.00 80 1015.0
20260503072904 4 261 3.2 3.2 0.00 0.00 0.00 79 1014.5
20260503072401 4 259 6.4 8.0 0.00 0.00 0.00 79 1014.6
20260503071857 4 310 3.2 3.2 0.00 0.00 0.00 78 1014.7
20260503071355 4 230 4.8 4.8 0.00 0.00 0.00 78 1014.6